| time (UTC) | temp F | wind direction | speed MPH | gust MPH | rain 1hr in | rain 24hr in | rain mn in | humidity % | barometer mb |
| 20260505194524 | 57 | 246 | 2.0 | 4.0 | 0.00 | 1.38 | 1.14 | 89 | 1013.5 |
| 20260505193006 | 57 | 246 | 2.0 | 4.0 | 0.00 | 1.38 | 1.14 | 88 | 1013.5 |
| 20260505191518 | 57 | 253 | 2.0 | 4.0 | 0.00 | 1.38 | 1.14 | 88 | 1013.1 |
| 20260505190004 | 57 | 244 | 2.0 | 4.0 | 0.00 | 1.38 | 1.14 | 87 | 1013.0 |
| 20260505184510 | 58 | 240 | 2.0 | 4.0 | 0.00 | 1.38 | 1.14 | 87 | 1013.1 |
| 20260505183008 | 58 | 244 | 3.0 | 4.0 | 0.00 | 1.39 | 1.14 | 86 | 1013.2 |
| 20260505181503 | 59 | 243 | 2.0 | 4.0 | 0.00 | 1.39 | 1.14 | 85 | 1013.1 |
| 20260505180008 | 60 | 242 | 2.0 | 4.0 | 0.00 | 1.39 | 1.14 | 83 | 1013.1 |
| 20260505174507 | 61 | 256 | 2.0 | 4.0 | 0.00 | 1.39 | 1.14 | 81 | 1013.3 |
| 20260505173002 | 63 | 239 | 0.0 | 0.0 | 0.00 | 1.39 | 1.14 | 77 | 1013.3 |
| 20260505171508 | 63 | 94 | 0.0 | 3.0 | 0.00 | 1.39 | 1.14 | 75 | 1013.4 |
| 20260505170009 | 63 | 121 | 0.0 | 2.0 | 0.00 | 1.39 | 1.14 | 75 | 1013.5 |
| 20260505164506 | 63 | 101 | 0.0 | 3.0 | 0.00 | 1.39 | 1.14 | 74 | 1013.6 |
| 20260505163016 | 63 | 82 | 0.0 | 0.0 | 0.00 | 1.39 | 1.14 | 74 | 1013.6 |
| 20260505161508 | 63 | 95 | 0.0 | 0.0 | 0.00 | 1.39 | 1.14 | 74 | 1013.6 |
| 20260505153012 | 64 | 116 | 0.0 | 3.0 | 0.00 | 1.39 | 1.14 | 73 | 1013.6 |
| 20260505151508 | 63 | 115 | 0.0 | 3.0 | 0.00 | 1.39 | 1.14 | 72 | 1013.6 |
| 20260505124507 | 63 | 118 | 0.0 | 4.0 | 0.00 | 1.39 | 1.14 | 78 | 1013.8 |
| 20260505123003 | 63 | 107 | 0.0 | 0.0 | 0.00 | 1.39 | 1.14 | 78 | 1013.8 |
| 20260505121516 | 63 | 92 | 0.0 | 0.0 | 0.00 | 1.39 | 1.14 | 78 | 1013.9 |
| 20260505120029 | 63 | 109 | 0.0 | 3.0 | 0.00 | 1.39 | 1.14 | 80 | 1013.9 |
| 20260505114503 | 62 | 288 | 0.0 | 1.0 | 0.00 | 1.39 | 1.14 | 82 | 1013.9 |
| 20260505113008 | 62 | 288 | 1.0 | 3.0 | 0.00 | 1.39 | 1.14 | 80 | 1013.9 |
| 20260505111514 | 62 | 117 | 2.0 | 5.0 | 0.00 | 1.39 | 1.14 | 80 | 1013.9 |
| 20260505101511 | 61 | 121 | 0.0 | 0.0 | 0.00 | 1.39 | 1.14 | 82 | 1013.8 |
| 20260505100012 | 61 | 121 | 0.0 | 0.0 | 0.00 | 1.39 | 1.14 | 83 | 1013.8 |
| 20260505094507 | 61 | 70 | 0.0 | 0.0 | 0.00 | 1.39 | 1.14 | 83 | 1013.8 |
| 20260505093020 | 61 | 70 | 0.0 | 0.0 | 0.00 | 1.39 | 1.14 | 83 | 1013.8 |
| 20260505091507 | 61 | 120 | 0.0 | 3.0 | 0.00 | 1.38 | 1.13 | 83 | 1013.7 |
| 20260505090019 | 61 | 119 | 0.0 | 3.0 | 0.00 | 1.38 | 1.13 | 85 | 1013.6 |
| 20260505084518 | 61 | 128 | 0.0 | 0.0 | 0.02 | 1.38 | 1.13 | 87 | 1013.6 |
| 20260505083021 | 60 | 128 | 0.0 | 0.0 | 0.03 | 1.38 | 1.13 | 88 | 1013.5 |
| 20260505081512 | 60 | 252 | 0.0 | 0.0 | 0.03 | 1.38 | 1.13 | 90 | 1013.5 |
| 20260505080012 | 60 | 252 | 0.0 | 3.0 | 0.03 | 1.38 | 1.13 | 89 | 1013.5 |
| 20260505074516 | 60 | 76 | 0.0 | 8.0 | 0.00 | 1.36 | 1.11 | 88 | 1014.0 |
| 20260505073022 | 60 | 256 | 0.0 | 0.0 | 0.00 | 1.35 | 1.10 | 89 | 1012.8 |
| 20260505071531 | 60 | 256 | 0.0 | 0.0 | 0.00 | 1.35 | 1.10 | 90 | 1012.7 |
| 20260505070019 | 60 | 256 | 2.0 | 4.0 | 0.00 | 1.35 | 1.10 | 90 | 1012.6 |
| 20260505064516 | 59 | 254 | 1.0 | 3.0 | 0.00 | 1.35 | 1.10 | 91 | 1012.4 |
| 20260505063017 | 58 | 254 | 1.0 | 3.0 | 0.00 | 1.35 | 1.10 | 91 | 1012.3 |
| 20260505061525 | 58 | 251 | 1.0 | 3.0 | 0.00 | 1.35 | 1.10 | 91 | 1012.5 |
| 20260505060041 | 58 | 245 | 0.0 | 1.0 | 0.00 | 1.35 | 1.10 | 92 | 1012.4 |
| 20260505054529 | 56 | 245 | 0.0 | 2.0 | 0.00 | 1.35 | 1.10 | 91 | 1012.2 |
| 20260505053026 | 56 | 245 | 1.0 | 3.0 | 0.00 | 1.35 | 1.10 | 91 | 1012.1 |
| 20260505051525 | 56 | 225 | 0.0 | 0.0 | 0.00 | 1.35 | 1.10 | 91 | 1012.0 |
| 20260505041507 | 56 | 246 | 2.0 | 3.0 | 0.06 | 1.34 | 1.09 | 90 | 1012.3 |
| 20260505040005 | 56 | 293 | 2.0 | 6.0 | 0.11 | 1.33 | 1.08 | 90 | 1012.4 |
| 20260505034505 | 56 | 294 | 3.0 | 10.0 | 0.21 | 1.33 | 1.07 | 90 | 1012.2 |
| 20260505033005 | 56 | 263 | 6.0 | 10.0 | 0.24 | 1.31 | 1.06 | 91 | 1012.9 |
| 20260505031516 | 56 | 249 | 6.0 | 13.0 | 0.23 | 1.28 | 1.03 | 91 | 1013.1 |
| 20260505030014 | 56 | 265 | 4.0 | 9.0 | 0.19 | 1.22 | 0.96 | 91 | 1013.0 |
| 20260505024509 | 56 | 244 | 5.0 | 10.0 | 0.13 | 1.11 | 0.86 | 91 | 1013.6 |
| 20260505023018 | 58 | 257 | 3.0 | 7.0 | 0.15 | 1.07 | 0.81 | 91 | 1013.4 |
| 20260505021513 | 58 | 252 | 1.0 | 4.0 | 0.17 | 1.04 | 0.79 | 91 | 1013.3 |
| 20260505020007 | 59 | 295 | 0.0 | 3.0 | 0.19 | 1.02 | 0.77 | 91 | 1013.4 |
| 20260505014522 | 59 | 248 | 2.0 | 6.0 | 0.20 | 0.98 | 0.73 | 91 | 1013.4 |
| 20260505013004 | 60 | 234 | 1.0 | 4.0 | 0.18 | 0.91 | 0.66 | 91 | 1013.6 |
| 20260505011512 | 60 | 286 | 0.0 | 2.0 | 0.19 | 0.87 | 0.62 | 91 | 1013.9 |
| 20260505010012 | 59 | 286 | 0.0 | 4.0 | 0.16 | 0.82 | 0.57 | 91 | 1014.0 |
| 20260505004506 | 60 | 255 | 4.0 | 7.0 | 0.14 | 0.77 | 0.52 | 91 | 1014.3 |
| 20260505003004 | 60 | 285 | 3.0 | 5.0 | 0.10 | 0.72 | 0.47 | 90 | 1014.7 |
| 20260505001504 | 60 | 263 | 2.0 | 4.0 | 0.08 | 0.67 | 0.42 | 90 | 1014.9 |
| 20260505000019 | 61 | 115 | 2.0 | 4.0 | 0.11 | 0.66 | 0.40 | 90 | 1015.2 |
| 20260504234514 | 61 | 88 | 2.0 | 6.0 | 0.11 | 0.63 | 0.38 | 92 | 1015.3 |
| 20260504233014 | 59 | 267 | 2.0 | 6.0 | 0.14 | 0.62 | 0.37 | 90 | 1015.6 |
| 20260504231512 | 58 | 262 | 3.0 | 9.0 | 0.17 | 0.59 | 0.33 | 89 | 1015.9 |
| 20260504230008 | 59 | 242 | 3.0 | 5.0 | 0.29 | 0.54 | 0.29 | 89 | 1016.1 |
| 20260504224513 | 59 | 252 | 2.0 | 6.0 | 0.44 | 0.52 | 0.27 | 88 | 1016.2 |
| 20260504223020 | 60 | 242 | 0.0 | 7.0 | 0.45 | 0.48 | 0.22 | 88 | 1016.3 |
| 20260504221521 | 59 | 252 | 0.0 | 9.0 | 0.40 | 0.41 | 0.16 | 87 | 1016.4 |
| 20260504220036 | 59 | 265 | 4.0 | 6.0 | 0.24 | 0.25 | 0.00 | 86 | 1016.7 |
| 20260504214520 | 60 | 291 | 1.0 | 6.0 | 0.07 | 0.07 | 0.07 | 84 | 1017.0 |
| 20260504213010 | 61 | 259 | 3.0 | 8.0 | 0.01 | 0.02 | 0.02 | 81 | 1017.0 |
| 20260504211526 | 62 | 255 | 2.0 | 6.0 | 0.00 | 0.00 | 0.00 | 80 | 1017.3 |
| 20260504210022 | 62 | 244 | 0.0 | 2.0 | 0.00 | 0.00 | 0.00 | 80 | 1017.5 |
| 20260504204528 | 61 | 254 | 1.0 | 6.0 | 0.00 | 0.00 | 0.00 | 80 | 1017.6 |
| 20260504203028 | 62 | 253 | 2.0 | 4.0 | 0.00 | 0.00 | 0.00 | 80 | 1017.7 |
| 20260504201515 | 62 | 254 | 0.0 | 1.0 | 0.00 | 0.00 | 0.00 | 81 | 1017.7 |
| 20260504200022 | 61 | 248 | 0.0 | 1.0 | 0.00 | 0.00 | 0.00 | 82 | 1017.7 |